Location: Leeds
(37.2390°N, 113.3580°W)
Time: 08:48:06
(UTC-06:00)

Daily predictions for brighter satellites

Satellite Brightness Start Highest point End
(mag) Time Altitude Azimuth Time Altitude Azimuth Time Altitude Azimuth
Cosmos 1939 Rocket 3.9 21:23:31 10° SE 21:26:57 29° ENE 21:30:22 10° N
Cosmos 1743 Rocket 3.6 21:23:30 10° S 21:27:57 74° E 21:32:25 10° N
Cosmos 2221 4.0 21:24:33 10° NNW 21:28:31 38° W 21:32:29 10° SSW
Cosmos 332 Rocket 4.3 21:25:26 10° NNW 21:30:13 62° WSW 21:35:00 10° S
Cosmos 1378 4.4 21:27:25 10° SSW 21:31:01 45° W 21:34:38 10° N
Cosmos 2228 Rocket 3.1 21:27:55 10° N 21:32:25 83° E 21:36:56 10° S
Cosmos 1833 4.4 21:27:52 10° S 21:33:23 51° ESE 21:38:51 10° NNE
Cosmos 1500 Rocket 3.7 21:29:42 10° S 21:33:57 56° E 21:38:17 10° NNE
H-2A R/B 3.4 21:30:51 10° S 21:34:38 57° W 21:38:23 10° NNW
S3M 4.0 21:30:05 10° N 21:36:12 74° E 21:42:20 10° SSE
Cosmos 1437 Rocket 3.3 21:33:28 10° N 21:37:03 38° ENE 21:40:39 10° SSE
Resurs 01 Rocket 4.5 21:39:38 10° WSW 21:41:51 14° W 21:44:03 10° WNW
deb Chang Zheng 4 3.5 21:43:50 10° NNE 21:48:10 71° ESE 21:52:29 10° S
Delta 2 Rocket 3.0 21:45:00 10° WSW 21:48:35 53° S 21:51:55 10° E
Meteor 2-2 Rocket 4.5 21:42:56 10° N 21:48:54 63° E 21:54:52 10° SSE
Cosmos 1680 Rocket 4.3 21:45:41 10° N 21:50:31 36° ENE 21:54:43 13° SE
Cosmos 1538 Rocket 4.3 21:45:17 10° NNW 21:50:37 75° WSW 21:55:58 10° S
COSMOS 2428 4.2 21:46:22 10° N 21:50:43 22° NE 21:55:01 10° ESE
USA 186 3.8 21:49:28 10° SW 21:51:15 18° W 21:53:03 10° NW
OAO 2 Rocket 4.3 21:47:31 10° SSW 21:52:01 28° SSE 21:56:30 10° E
Cosmos 923 Rocket 4.3 21:49:41 10° N 21:54:46 52° ENE 21:59:10 13° SE
Meteor 1-21 Rocket 4.4 21:51:56 10° SSW 21:57:28 76° W 22:03:01 10° N
Cosmos 1328 4.4 21:57:22 12° SSE 22:00:45 37° E 22:04:26 10° NNE
Cosmos 2219 Rocket 4.2 21:59:45 10° NNE 22:02:35 14° NE 22:05:23 10° E
ARGOS 4.4 21:59:48 13° ESE 22:03:28 26° ENE 22:07:52 10° NNE
Cosmos 1515 Rocket 3.8 21:59:49 10° NNW 22:04:15 72° W 22:08:36 10° S
Cosmos 371 Rocket 4.5 22:01:08 10° NNW 22:05:37 40° WSW 22:10:05 10° S
ALOS 4.3 22:03:16 10° SSW 22:07:06 25° W 22:10:58 10° NW
Cosmos 2151 3.0 22:03:41 10° S 22:07:48 58° E 22:11:56 10° NNE
USA 245 4.3 22:09:33 15° E 22:09:50 15° ENE 22:11:23 10° NE
Cosmos 773 Rocket 4.0 22:05:16 10° NNW 22:10:30 87° WSW 22:15:05 14° SSE
USA 229 DEB 4.3 22:04:12 10° SW 22:11:01 61° NW 22:17:58 10° NNE
USA 229 4.3 22:04:17 10° SW 22:11:08 62° NW 22:18:04 10° NNE
Tiangong 1 1.3 22:09:27 10° SW 22:12:24 42° SSE 22:14:49 14° E
Sich 1 4.3 22:11:22 18° ESE 22:13:09 24° E 22:16:40 10° NE
Cosmos 1633 Rocket 4.3 22:13:56 19° ESE 22:15:32 23° E 22:19:01 10° NE
Nimbus 7 Rocket 4.4 22:09:40 10° NNE 22:15:33 86° WNW 22:21:25 10° SSW
Cosmos 1726 3.7 22:13:49 10° NNE 22:16:40 20° ENE 22:17:46 18° E
Cosmos 2219 3.2 22:17:05 10° SSW 22:22:46 71° ESE 22:28:30 10° NNE
Cosmos 1151 Rocket 3.2 22:20:53 10° N 22:25:11 74° W 22:28:42 15° S
SL-14 R/B 4.1 22:24:00 26° SE 22:25:23 33° E 22:29:00 10° NNE
SPOT 5 2.7 22:23:11 18° SSE 22:26:37 87° WSW 22:31:24 10° NNW
Cosmos 2058 2.9 22:25:16 20° SSE 22:27:56 59° E 22:31:59 10° NNE
PSLV R/B 3.1 22:27:00 27° S 22:28:32 81° W 22:31:36 10° NNW
Cosmos 2266 Rocket 4.3 22:23:11 10° SSW 22:29:28 68° W 22:35:40 10° N
Cosmos 1805 Rocket 3.6 22:27:06 19° S 22:30:11 61° E 22:34:35 10° NNE
NOSS 3-1 (A) 3.5 22:25:03 10° S 22:30:36 50° ESE 22:36:41 10° NE
Cosmos 2237 Rocket 4.1 22:29:17 10° NNE 22:32:50 17° NE 22:36:00 11° E
Cosmos 2322 3.7 22:28:01 10° NNW 22:33:46 83° WSW 22:37:34 22° SSE
Cosmos 2315 Rocket 3.9 22:28:01 10° N 22:34:14 75° E 22:38:37 20° SSE
Cosmos 1437 3.5 22:31:27 10° SSW 22:34:37 52° W 22:37:50 10° N
Cosmos 2322 Rocket 4.0 22:31:13 10° NW 22:35:43 25° WSW 22:40:11 10° SSW
Meteor 1-27 4.4 22:31:37 10° N 22:37:12 55° ENE 22:40:13 26° SE
Envisat 3.8 22:36:47 12° S 22:41:19 48° W 22:46:15 10° NNW
Meteor 1-4 Rocket 3.7 22:40:30 10° NNE 22:43:46 28° ENE 22:44:12 27° E
Cosmos 2360 Rocket 2.5 22:39:57 10° NNW 22:45:32 63° WSW 22:49:07 23° S
Cosmos 304 Rocket 4.1 22:41:02 10° NNW 22:45:47 61° WSW 22:48:35 24° S
SL-16 R/B 4.2 22:42:17 10° NW 22:46:32 22° W 22:50:45 10° SSW
NOAA 11 4.3 22:43:47 28° SE 22:46:35 61° ENE 22:51:58 10° N
H-2A R/B 3.9 22:42:46 10° SSW 22:46:41 29° W 22:50:38 10° NW
MetOp-B 4.4 22:47:14 21° S 22:50:51 67° WSW 22:56:12 10° NNW
Cosmos 1707 Rocket 3.4 22:46:37 10° N 22:50:59 77° E 22:52:39 37° SSE
Cosmos 1244 Rocket 4.5 22:46:37 15° S 22:52:00 88° E 22:58:19 10° N
Cosmos 1666 Rocket 3.4 22:50:24 29° S 22:52:34 80° E 22:57:00 10° N
ATLAS 2AS CENTAUR R/B 3.6 22:50:45 27° SE 22:53:05 32° ESE 22:59:49 10° NE
Cosmos 1626 4.0 22:55:19 18° ENE 22:55:19 18° ENE 22:57:15 10° NE
Cosmos 2112 Rocket 4.3 22:50:39 10° NNW 22:55:50 65° WSW 22:58:38 27° S
Cosmos 220 Rocket 4.2 22:58:39 44° SE 22:59:20 48° ESE 23:03:35 10° NNE
Cosmos 2298 Rocket 4.0 22:54:39 13° SSW 22:59:25 87° WNW 23:04:47 10° NNE
Cosmos 1937 Rocket 3.5 23:00:08 34° SSE 23:02:17 59° ESE 23:07:24 10° NNE
Landsat 7 4.0 23:01:33 39° SE 23:02:57 55° ENE 23:07:36 10° N
Meteor 1-11 4.4 22:58:45 16° SSW 23:03:28 76° W 23:09:14 10° N
Meteor 2-11 Rocket 4.4 22:58:06 10° N 23:04:17 89° W 23:07:30 30° S
Cosmos 1300 2.9 23:02:11 10° NNW 23:06:00 65° W 23:07:01 44° SSW
Cosmos 1470 Rocket 4.0 23:05:53 41° E 23:06:06 41° E 23:10:10 10° NNE
DELTA 2 R/B (1) 3.6 23:01:11 10° WNW 23:06:38 61° SSW 23:08:22 41° SE
Cosmos 1933 Rocket 4.0 23:07:05 41° ESE 23:07:25 42° E 23:11:37 10° NNE
Cosmos 292 Rocket 4.1 23:04:15 10° N 23:08:55 52° ENE 23:09:59 43° ESE
SL-08 R/B 4.4 23:06:16 30° S 23:09:31 75° E 23:15:47 10° N
Cosmos 1745 Rocket 4.0 23:06:59 33° SSE 23:09:46 64° E 23:15:53 10° NNE
Cosmos 2227 Rocket 2.5 23:08:49 39° SE 23:09:54 43° ESE 23:15:14 10° NE
YAOGAN 6 3.9 23:09:51 27° SW 23:11:05 35° W 23:14:26 10° NNW
ATLAS 3B R/B 4.4 23:07:19 10° N 23:12:43 23° NE 23:17:16 12° E
Cosmos 990 Rocket 4.1 23:13:45 46° SE 23:14:42 53° ESE 23:19:43 10° NNE
NOSS 3-1 (C) 4.0 23:12:02 10° SW 23:17:46 56° NW 23:24:06 10° NNE
Terra 2.0 23:17:55 47° ESE 23:18:49 55° ENE 23:23:28 10° N
Spot 4 4.4 23:18:40 39° E 23:19:30 43° ENE 23:24:06 10° N
H-2A R/B 2.1 23:19:46 46° SE 23:21:17 69° ENE 23:26:41 10° N
Cosmos 2333 Rocket 2.8 23:18:05 10° N 23:23:37 47° ENE 23:25:14 37° ESE
SL-23 DEB 4.0 23:19:51 10° WNW 23:23:46 53° WSW 23:23:46 53° WSW
SL-16 R/B 4.0 23:21:38 10° N 23:25:40 19° NE 23:27:44 16° E
Cosmos 1455 2.9 23:25:04 10° N 23:28:13 42° NE 23:28:13 42° NE
Delta 2 Rocket 4.4 23:27:30 10° W 23:29:16 27° W 23:29:16 27° W
NOSS 0 Rocket 4.0 23:25:24 10° NNW 23:31:31 65° ENE 23:33:18 45° SE
COSMOS 2428 3.2 23:29:47 10° NNW 23:35:15 50° WSW 23:37:03 37° SSW
Cosmos 1386 Rocket 4.3 23:34:40 48° SSE 23:36:26 76° E 23:42:26 10° N
OAO 2 Rocket 3.4 23:31:12 10° WSW 23:36:15 59° S 23:36:15 59° S
Cosmos 2297 Rocket 2.3 23:36:45 51° ESE 23:37:05 51° ESE 23:42:33 10° NNE
CZ-4C R/B 3.8 23:38:19 45° W 23:38:19 45° W 23:41:25 10° NNW
Cosmos 1869 3.9 23:34:08 10° N 23:37:35 46° NE 23:37:35 46° NE
Cosmos 2242 Rocket 4.1 23:33:58 10° NNW 23:38:20 53° W 23:39:10 46° SW
SAR-Lupe-2 4.0 23:40:27 58° N 23:40:27 58° N 23:43:24 10° N
ARGOS 4.2 23:41:19 27° SW 23:43:28 37° W 23:48:27 10° NNW
Cosmos 2219 Rocket 2.1 23:41:37 10° NNW 23:47:14 84° WSW 23:48:13 62° S
CARTOSAT-1 3.7 23:48:24 63° WSW 23:48:31 64° WSW 23:52:50 10° NNW
BREEZE-M DEB (TANK) 4.2 23:46:36 10° NNW 23:48:17 25° NNE 23:48:17 25° NNE
Tiangong 1 3.6 23:46:04 10° W 23:47:01 17° WNW 23:47:01 17° WNW
Cosmos 1862 Rocket 3.5 23:45:14 10° N 23:49:24 81° N 23:49:24 81° N
Cosmos 1125 Rocket 4.0 23:50:17 46° E 23:50:17 46° E 23:54:55 10° NNE
Cosmos 1726 4.2 23:49:03 10° NW 23:51:56 21° W 23:52:27 20° WSW
SeaSat 1 3.8 23:52:14 26° ENE 23:53:10 28° NE 23:57:18 10° N
